Rockford, IL

7:56 PM CDT on March 24, 2017 (GMT -0500)
Greater Rockford

Weather History for KRFD - March, 2013

Change the Weather History Date:

Monday, March 18, 2013

  Actual Average Record
Temperature  
Mean Temperature 27 °F 38 °F  
Max Temperature 34 °F 48 °F 81 °F (2012)
Min Temperature 19 °F 28 °F -1 °F (1941)
Degree Days  
Heating Degree Days 38 27  
Month to date heating degree days 670 549  
Since 1 July heating degree days 5407 5551  
Cooling Degree Days 0 0  
Month to date cooling degree days 0 0  
Year to date cooling degree days 0 0  
Moisture  
Dew Point 26 °F    
Average Humidity 80    
Maximum Humidity 92    
Minimum Humidity 67    
Precipitation  
Precipitation 0.12 in 0.07 in 1.25 in (1930)
Month to date precipitation 2.21 1.21  
Year to date precipitation 8.28 3.99  
Snow  
Snow 1.00 in 0.20 in 5.10 in (1971)
Month to date snowfall 11.9 3.4  
Since 1 July snowfall 38.5 34.4  
Snow Depth 0.00 in    
Sea Level Pressure  
Sea Level Pressure 29.74 in    
Wind  
Wind Speed 12 mph (SE)    
Max Wind Speed 29 mph    
Max Gust Speed 40 mph    
Visibility 4 miles    
Events Snow    
T = Trace of Precipitation, MM = Missing Value Source: NWS Daily Summary

Daily Weather History Graph

Daily Weather History Graph

Search for Another Location

Airport or City:

Trip Planner

Search our weather history database for the weather conditions in past years. The results will help you decide how hot, cold, wet, or windy it might be!

Date:

Astronomy

Mar. 18, 2013 Rise Set
Actual Time 7:02 AM CDT 7:06 PM CDT
Civil Twilight 6:34 AM CDT 7:34 PM CDT
Nautical Twilight 6:02 AM CDT 8:07 PM CDT
Astronomical Twilight 5:28 AM CDT 8:40 PM CDT
Moon 10:56 AM CDT (3/18) 1:12 AM CDT (3/18)
Length of Visible Light 12h 59m
Length of Day
12h 03m
Waxing Crescent, 41% of the Moon is Illuminated
Mar 18
Waxing Crescent
Mar 19
First Quarter
Mar 27
Full
Apr 2
Last Quarter
Apr 10
New

Hourly Weather History & Observations

Time (CDT) Temp. Windchill Dew Point Humidity Pressure Visibility Wind Dir Wind Speed Gust Speed Precip Events Conditions
12:54 AM 30.9 °F 22.8 °F 24.1 °F 76% 29.98 in 10.0 mi ESE 9.2 mph - N/A   Mostly Cloudy
1:54 AM 30.0 °F 22.4 °F 23.0 °F 75% 29.96 in 10.0 mi East 8.1 mph - N/A   Mostly Cloudy
2:54 AM 30.0 °F 23.2 °F 23.0 °F 75% 29.91 in 10.0 mi ESE 6.9 mph - N/A   Overcast
3:21 AM 30.2 °F 21.3 °F 23.0 °F 75% 29.88 in 10.0 mi ESE 10.4 mph - N/A   Overcast
3:54 AM 30.0 °F 21.1 °F 23.0 °F 75% 29.87 in 10.0 mi East 10.4 mph - N/A   Overcast
4:31 AM 30.2 °F 22.6 °F 23.0 °F 75% 29.83 in 10.0 mi East 8.1 mph - N/A   Overcast
4:54 AM 30.0 °F 22.4 °F 24.1 °F 79% 29.85 in 10.0 mi East 8.1 mph - N/A   Overcast
5:54 AM 30.0 °F 23.2 °F 24.1 °F 79% 29.82 in 3.0 mi East 6.9 mph - 0.00 in Snow Light Snow
6:54 AM 28.9 °F 23.9 °F 26.1 °F 89% 29.82 in 3.0 mi East 4.6 mph - 0.01 in Snow Light Snow
7:13 AM 28.4 °F 20.4 °F 26.6 °F 93% 29.78 in 2.0 mi ENE 8.1 mph - 0.01 in Snow Light Snow
7:25 AM 28.4 °F 20.4 °F 26.6 °F 93% 29.77 in 1.5 mi ENE 8.1 mph - 0.02 in Snow Light Snow
7:32 AM 28.4 °F 20.4 °F 26.6 °F 93% 29.77 in 1.5 mi ENE 8.1 mph - 0.02 in Snow Light Snow
7:54 AM 28.9 °F 21.9 °F 27.0 °F 92% 29.78 in 1.5 mi ENE 6.9 mph - 0.03 in Snow Light Snow
8:04 AM 28.4 °F 21.2 °F 26.6 °F 93% 29.75 in 1.0 mi East 6.9 mph - 0.00 in Snow Light Snow
8:31 AM 30.2 °F 24.3 °F 26.6 °F 86% 29.74 in 1.5 mi East 5.8 mph - 0.01 in Snow Light Snow
8:42 AM 30.2 °F 23.4 °F 26.6 °F 86% 29.73 in 2.0 mi East 6.9 mph - 0.01 in Snow Light Snow
8:50 AM 30.2 °F 22.6 °F 26.6 °F 86% 29.73 in 2.5 mi East 8.1 mph - 0.01 in Snow Light Snow
8:54 AM 30.0 °F 24.1 °F 27.0 °F 88% 29.76 in 2.5 mi East 5.8 mph - 0.01 in Snow Light Snow
9:08 AM 30.2 °F 23.4 °F 26.6 °F 86% 29.72 in 3.0 mi East 6.9 mph - 0.00 in Snow Light Snow
9:16 AM 30.2 °F 22.6 °F 26.6 °F 86% 29.72 in 2.0 mi East 8.1 mph - 0.01 in Snow Light Snow
9:39 AM 30.2 °F 21.9 °F 26.6 °F 86% 29.72 in 3.0 mi East 9.2 mph - 0.01 in Snow Light Snow
9:54 AM 30.0 °F 24.1 °F 27.0 °F 88% 29.75 in 2.0 mi ESE 5.8 mph - 0.01 in Snow Light Snow
9:59 AM 30.2 °F 24.3 °F 26.6 °F 86% 29.72 in 1.5 mi ESE 5.8 mph - 0.00 in Snow Light Snow
10:27 AM 30.2 °F 25.4 °F 28.4 °F 93% 29.71 in 1.2 mi SE 4.6 mph - 0.02 in Snow Light Snow
10:34 AM 30.2 °F 25.4 °F 28.4 °F 93% 29.70 in 1.2 mi SE 4.6 mph - 0.02 in Snow Light Snow
10:51 AM 30.2 °F 23.4 °F 28.4 °F 93% 29.70 in 1.2 mi SE 6.9 mph - 0.03 in Snow Light Snow
10:54 AM 30.9 °F 24.3 °F 28.0 °F 89% 29.72 in 1.2 mi ESE 6.9 mph - 0.03 in Snow Light Snow
10:58 AM 30.2 °F 25.4 °F 28.4 °F 93% 29.70 in 1.2 mi SE 4.6 mph - 0.00 in Snow Light Snow
11:04 AM 30.2 °F 25.4 °F 28.4 °F 93% 29.70 in 1.5 mi SE 4.6 mph - 0.00 in Snow Light Snow
11:13 AM 30.2 °F 25.4 °F 28.4 °F 93% 29.70 in 1.5 mi SE 4.6 mph - 0.00 in Snow Light Snow
11:19 AM 30.2 °F 26.7 °F 28.4 °F 93% 29.69 in 2.0 mi SE 3.5 mph - 0.00 in Snow Light Snow
11:34 AM 30.2 °F 25.4 °F 28.4 °F 93% 29.69 in 2.5 mi SSE 4.6 mph - 0.00 in Snow Light Snow
11:52 AM 32.0 °F 27.5 °F 28.4 °F 87% 29.68 in 1.2 mi SE 4.6 mph - 0.00 in Snow Light Snow
11:54 AM 32.0 °F 27.5 °F 28.9 °F 88% 29.70 in 1.2 mi SE 4.6 mph - 0.00 in Snow Light Snow
12:12 PM 30.2 °F 25.4 °F 28.4 °F 93% 29.67 in 1.2 mi SSE 4.6 mph - 0.01 in Snow Light Snow
12:54 PM 32.0 °F 28.7 °F 30.0 °F 92% 29.68 in 1.2 mi SSW 3.5 mph - 0.01 in Snow Light Snow
1:54 PM 33.1 °F 26.9 °F 30.0 °F 89% 29.65 in 2.0 mi SW 6.9 mph - 0.02 in Snow Light Snow
2:11 PM 33.8 °F 27.7 °F 30.2 °F 87% 29.63 in 1.0 mi SW 6.9 mph - 0.00 in Snow Light Snow
2:18 PM 33.8 °F 26.4 °F 30.2 °F 87% 29.63 in 2.0 mi SW 9.2 mph - 0.00 in Snow Light Snow
2:37 PM 33.8 °F 24.3 °F 30.2 °F 87% 29.63 in 5.0 mi SW 13.8 mph - 0.00 in Snow Light Snow
2:54 PM 34.0 °F 25.5 °F 30.0 °F 85% 29.65 in 3.0 mi SW 11.5 mph - 0.00 in Snow Light Snow
3:07 PM 33.8 °F 25.3 °F 30.2 °F 87% 29.63 in 2.0 mi WSW 11.5 mph - 0.00 in Snow Light Snow
3:51 PM 33.8 °F 25.3 °F 30.2 °F 87% 29.63 in 4.0 mi WSW 11.5 mph 18.4 mph 0.00 in Snow Light Snow
3:54 PM 34.0 °F 25.5 °F 30.0 °F 85% 29.65 in 4.0 mi WSW 11.5 mph - 0.00 in Snow Light Snow
4:50 PM 33.8 °F 24.3 °F 30.2 °F 87% 29.62 in 5.0 mi West 13.8 mph 20.7 mph 0.00 in Snow Light Drizzle
4:54 PM 34.0 °F 23.8 °F 30.9 °F 89% 29.65 in 5.0 mi West 16.1 mph 24.2 mph 0.00 in Snow Light Drizzle
5:30 PM 30.2 °F 17.1 °F 26.6 °F 86% 29.64 in 6.0 mi West 21.9 mph 32.2 mph 0.00 in   Overcast
5:40 PM 30.2 °F 16.2 °F 26.6 °F 86% 29.66 in 6.0 mi West 25.3 mph 34.5 mph 0.00 in   Overcast
5:54 PM 28.9 °F 15.1 °F 24.1 °F 82% 29.69 in 7.0 mi West 23.0 mph 39.1 mph 0.00 in   Overcast
6:54 PM 26.1 °F 12.3 °F 19.0 °F 75% 29.74 in 7.0 mi West 19.6 mph 34.5 mph N/A   Overcast
7:54 PM 24.1 °F 9.0 °F 16.0 °F 71% 29.78 in 9.0 mi West 21.9 mph 31.1 mph 0.00 in Snow Light Snow
8:22 PM 24.8 °F 10.0 °F 14.0 °F 64% 29.76 in 9.0 mi West 21.9 mph 32.2 mph 0.00 in Snow Light Snow
8:54 PM 23.0 °F 6.6 °F 15.1 °F 72% 29.81 in 7.0 mi West 25.3 mph 34.5 mph 0.00 in Snow Light Snow
9:54 PM 21.9 °F 6.5 °F 12.0 °F 66% 29.82 in 9.0 mi West 20.7 mph 32.2 mph 0.00 in Snow Light Snow
10:54 PM 19.9 °F 4.3 °F 12.0 °F 71% 29.84 in 9.0 mi West 19.6 mph 31.1 mph 0.00 in   Partly Cloudy
11:54 PM 19.0 °F 2.7 °F 10.0 °F 68% 29.85 in 10.0 mi West 20.7 mph 28.8 mph N/A   Partly Cloudy